Location: Christchurch
(43.5330°S, 172.6330°E)
Time: 13:46:31
(UTC+13:00)

Daily predictions for brighter satellites

Satellite Brightness Start Highest point End
(mag) Time Altitude Azimuth Time Altitude Azimuth Time Altitude Azimuth
Envisat 3.6 21:28:17 10° S 21:33:25 66° WSW 21:38:28 10° NNW
Cosmos 2227 4.3 21:33:31 10° SSW 21:39:17 80° ESE 21:44:57 10° NNE
USA 32 4.1 21:34:06 10° N 21:39:22 86° E 21:44:44 10° S
Meteor 2-10 Rocket 3.7 21:36:00 10° NNW 21:41:08 82° W 21:46:33 10° S
Resurs 01 Rocket 3.0 21:38:18 10° SE 21:41:38 20° E 21:44:56 10° NE
Cosmos 292 Rocket 4.2 21:37:24 10° SSW 21:42:11 66° WNW 21:46:56 10° N
Cosmos 2263 Rocket 2.6 21:37:51 10° SSW 21:43:25 51° ESE 21:48:56 10° NE
Cosmos 1850 Rocket 4.3 21:38:50 10° NNW 21:44:03 77° WSW 21:49:20 10° SSE
Aureole 3 Rocket 2.7 21:43:54 10° S 21:47:19 74° E 21:51:41 10° NNE
BREEZE-M DEB (TANK) 4.4 21:37:32 10° NW 21:54:24 72° NNE 21:58:30 10° ESE
CZ-2C R/B 3.0 21:49:16 10° NNE 21:54:34 53° ESE 21:59:49 10° S
Resurs 1-3 4.4 21:50:52 10° SSE 21:54:53 32° E 21:58:51 10° NNE
USA 234 4.4 21:49:39 10° SE 21:55:56 48° SSW 22:02:11 10° W
Cosmos 1151 Rocket 3.0 21:51:55 10° N 21:56:11 66° E 22:00:32 10° SSE
Cosmos 2208 Rocket 4.1 21:58:03 10° SSW 22:03:20 83° WNW 22:08:36 10° NNE
SPOT 3 Rocket 3.8 21:59:19 10° SSE 22:04:34 78° WSW 22:09:45 10° NNW
Cosmos 2315 Rocket 4.1 21:58:12 10° S 22:04:39 82° E 22:10:57 10° N
CZ-4C R/B 4.2 22:03:18 10° SSW 22:07:39 20° SSE 22:11:34 10° ESE
H-2A R/B 4.0 22:09:24 10° N 22:12:42 17° NE 22:20:19 10° ENE
Cosmos 1633 Rocket 4.3 22:10:36 10° SSW 22:14:46 41° W 22:18:54 10° NNW
Cosmos 540 Rocket 4.0 22:10:20 10° S 22:15:23 45° ESE 22:19:09 17° NE
ATLAS 3B R/B 4.2 22:18:33 14° ENE 22:20:05 15° ENE 22:23:54 10° ESE
Cosmos 1862 3.4 22:23:37 10° S 22:27:43 83° W 22:31:07 14° N
BREEZE-M DEB (TANK) 1.5 22:23:41 10° WNW 22:28:02 76° NNE 22:29:45 16° ESE
Cosmos 1763 Rocket 3.9 22:24:34 10° SSW 22:29:47 61° WNW 22:34:29 12° N
Atlas Centaur 2 3.8 22:24:33 10° NW 22:31:47 32° N 22:36:40 18° NE
SJ-6B 4.3 22:29:35 10° S 22:33:09 38° WSW 22:36:41 10° NW
Cosmos 1869 Rocket 4.1 22:30:00 10° S 22:34:15 43° ESE 22:36:30 24° NE
ERBS 3.3 22:31:44 10° SW 22:35:06 40° SE 22:37:00 21° E
Meteor 2-13 Rocket 4.5 22:30:30 10° N 22:36:35 89° WSW 22:42:47 10° S
H-2A R/B 2.1 22:37:00 10° SSE 22:42:01 55° E 22:45:39 18° N
Nimbus 7 Rocket 4.5 22:38:53 20° NNE 22:43:05 68° ESE 22:49:06 10° S
Cosmos 1486 Rocket 4.0 22:37:59 10° N 22:43:09 65° ENE 22:48:25 10° SSE
ERS-1 Rocket 4.4 22:39:30 10° SE 22:43:11 20° E 22:44:02 19° ENE
SL-08 R/B 4.4 22:39:25 11° N 22:45:16 71° E 22:51:29 10° SSE
SL-16 R/B 2.8 22:40:16 10° NW 22:45:54 61° WSW 22:51:36 10° SSE
Mayak 0.2 22:46:27 20° E 22:47:54 24° ESE 22:51:20 10° SSE
Cosmos 2360 Rocket 2.2 22:45:43 10° NNW 22:51:21 66° ENE 22:57:03 10° SSE
Lacrosse 5 rocket 3.7 22:50:50 10° SSW 22:53:03 15° SSE 22:55:15 10° SE
Cosmos 1733 Rocket 4.4 22:53:03 10° SSE 22:56:40 24° ESE 22:57:44 22° E
Cosmos 2228 Rocket 4.4 22:52:47 10° NNW 22:56:58 40° WSW 23:01:13 10° S
Cosmos 1707 Rocket 3.8 22:55:33 32° NNE 22:57:11 48° E 23:01:27 10° SSE
Lacrosse 5 3.9 22:54:26 10° WSW 22:57:52 18° WNW 23:01:12 10° NNW
Cosmos 1242 Rocket 3.6 22:54:58 10° SSW 22:58:33 43° W 23:00:52 19° NNW
Meteor 1-26 Rocket 4.4 22:56:00 23° NNE 22:59:31 56° E 23:05:10 10° SSE
Cosmos 1844 Rocket 3.2 22:54:22 10° SSW 22:59:51 47° ESE 23:02:38 26° ENE
Cosmos 841 Rocket 4.2 22:55:26 10° SSW 23:00:37 51° WNW 23:04:12 19° N
Cosmos 1933 3.4 22:58:17 19° NNW 23:01:09 80° W 23:05:21 10° S
Helios 1B rocket 2.4 23:00:45 35° NNE 23:02:23 72° ESE 23:06:35 10° S
COSMOS 2428 3.5 23:03:03 28° NE 23:04:17 31° ENE 23:09:18 10° SE
Cosmos 2322 Rocket 3.2 22:59:46 10° NW 23:05:15 48° WSW 23:10:49 10° SSE
Cosmos 1745 Rocket 4.0 23:05:15 17° N 23:10:20 85° E 23:16:46 10° S
Cosmos 968 Rocket 3.9 23:08:48 33° NE 23:10:26 44° ENE 23:15:25 10° SSE
ADEOS Rocket 3.8 23:05:49 11° NNW 23:10:48 40° W 23:16:01 10° SSW
Cosmos 1386 Rocket 4.4 23:09:16 22° N 23:13:24 77° E 23:19:33 10° S
Terra 3.5 23:13:54 10° SE 23:16:50 18° E 23:16:50 18° E
Cosmos 1633 3.6 23:14:19 10° SSW 23:17:45 40° W 23:19:15 26° NW
Cosmos 1709 Rocket 4.3 23:15:10 31° NNE 23:17:54 51° E 23:23:58 10° SSE
Resurs 01 Rocket 2.9 23:14:04 10° S 23:18:17 41° WSW 23:22:27 10° NW
ARGOS 3.4 23:13:08 10° S 23:18:34 68° WSW 23:23:32 12° NNW
Spot 2 Rocket 3.7 23:15:59 10° S 23:21:09 71° WSW 23:25:12 16° NNW
Cosmos 2322 3.6 23:18:11 18° NNW 23:22:31 78° ENE 23:28:16 10° SSE
MetOp-B 4.1 23:17:44 10° SSE 23:23:12 77° ENE 23:25:59 30° N
Meteor 1-25 Rocket 4.3 23:17:22 10° S 23:23:18 83° E 23:25:57 35° NNE
Cosmos 1862 Rocket 4.3 23:23:39 36° E 23:23:54 36° E 23:28:00 10° SSE
Cosmos 1606 2.7 23:25:39 51° N 23:26:36 89° WNW 23:30:38 10° S
Cosmos 2263 Rocket 3.9 23:22:29 10° SW 23:26:58 25° WNW 23:30:54 12° NNW
CENTAUR R/B 3.9 23:28:52 25° ENE 23:29:01 25° ENE 23:34:43 10° ESE
Cosmos 2333 Rocket 2.6 23:35:00 40° NE 23:35:58 44° ENE 23:41:27 10° SE
Cosmos 2278 Rocket 3.6 23:31:13 10° S 23:36:09 29° SE 23:38:32 22° E
IRAS Rocket 4.2 23:31:26 10° SSE 23:37:07 84° ENE 23:39:48 33° NNW
Cosmos 2219 Rocket 2.4 23:36:24 43° NE 23:37:30 48° ENE 23:42:59 10° SE
Cosmos 2181 Rocket 4.2 23:31:34 10° S 23:37:43 55° ESE 23:39:48 39° NE
IGS 5A 4.2 23:37:39 10° SSE 23:41:15 39° E 23:41:15 39° E
SeaSat 1 2.5 23:38:23 10° SE 23:43:18 57° ENE 23:44:00 52° NNE
Gbstr 26 Del rocket 4.0 23:41:54 10° SW 23:45:36 36° SSE 23:46:54 27° ESE
BREEZE-M DEB (TANK) 4.2 23:41:48 10° W 23:47:18 39° SSW 23:49:18 15° SE
Cosmos 2237 Rocket 3.3 23:51:01 27° E 23:51:01 27° E 23:55:12 10° SE
Cosmos 1340 Rocket 2.8 23:50:56 65° ESE 23:50:56 65° ESE 23:54:43 10° SSE
Cosmos 1818 3.5 23:47:57 20° NW 23:51:43 83° SW 23:57:09 10° SSE
